This is the latest recevied weather packets stored in our database for station/object SP1BMW-13. If no packets are shown the sender has not sent any weather packets the latest 1 day(s).
| Time | Temp. | Humidity | Pressure | Rain* | Wind** | Luminosity | Snow |
|---|---|---|---|---|---|---|---|
| 1778043951 | 9.44° C | 96% | 1005.4 hPa | 3.56 mm | 0 m/s | 10 W/m² | - |
| 1778043891 | 9.44° C | 96% | 1005.2 hPa | 3.56 mm | 1.34 m/s, 42° | 11 W/m² | - |
| 1778043831 | 9.44° C | 96% | 1005.5 hPa | 3.56 mm | 0.89 m/s, 23° | 10 W/m² | - |
| 1778043591 | 9.44° C | 96% | 1005.3 hPa | 3.56 mm | 0.45 m/s, 35° | 10 W/m² | - |
| 1778043471 | 9.44° C | 96% | 1005.4 hPa | 3.3 mm | 0.45 m/s, 46° | 10 W/m² | - |
| 1778043411 | 9.44° C | 96% | 1005.5 hPa | 3.3 mm | 0.89 m/s, 287° | 11 W/m² | - |
| 1778043351 | 9.44° C | 96% | 1005.5 hPa | 3.05 mm | 1.79 m/s, 30° | 11 W/m² | - |
| 1778043231 | 9.44° C | 96% | 1005.4 hPa | 3.05 mm | 1.79 m/s, 55° | 10 W/m² | - |
| 1778043171 | 9.44° C | 96% | 1005.4 hPa | 3.05 mm | 0.45 m/s, 53° | 9 W/m² | - |
| 1778043052 | 9.44° C | 96% | 1005.4 hPa | 2.79 mm | 0 m/s | 9 W/m² | - |
| 1778042991 | 9.44° C | 96% | 1005.6 hPa | 2.79 mm | 1.34 m/s, 19° | 8 W/m² | - |
| 1778042811 | 9.44° C | 96% | 1005.6 hPa | 2.54 mm | 0.45 m/s, 26° | 7 W/m² | - |
| 1778042751 | 9.44° C | 96% | 1005.5 hPa | 2.54 mm | 1.34 m/s, 18° | 7 W/m² | - |
| 1778042691 | 9.44° C | 96% | 1005.5 hPa | 2.79 mm | 0.89 m/s, 56° | 6 W/m² | - |
| 1778042631 | 9.44° C | 96% | 1005.5 hPa | 2.79 mm | 0 m/s | 5 W/m² | - |
| 1778042571 | 9.44° C | 96% | 1005.4 hPa | 2.54 mm | 0 m/s | 6 W/m² | - |
| 1778042451 | 9.44° C | 96% | 1005.6 hPa | 2.54 mm | 0.45 m/s, 27° | 7 W/m² | - |
| 1778042391 | 9.44° C | 96% | 1005.7 hPa | 2.54 mm | 0.89 m/s, 19° | 6 W/m² | - |
| 1778042331 | 9.44° C | 96% | 1005.5 hPa | 2.54 mm | 0.45 m/s, 48° | 6 W/m² | - |
| 1778042271 | 9.44° C | 96% | 1005.7 hPa | 2.29 mm | 0 m/s | 6 W/m² | - |
| 1778042211 | 9.44° C | 96% | 1005.7 hPa | 2.29 mm | 0.45 m/s, 318° | 6 W/m² | - |
| 1778042151 | 9.44° C | 96% | 1005.6 hPa | 2.29 mm | 0.45 m/s, 328° | 6 W/m² | - |
| 1778042091 | 9.44° C | 96% | 1005.8 hPa | 2.54 mm | 1.34 m/s, 283° | 5 W/m² | - |
| 1778042031 | 9.44° C | 96% | 1005.7 hPa | 2.54 mm | 0 m/s | 5 W/m² | - |
| 1778041971 | 9.44° C | 96% | 1005.7 hPa | 2.29 mm | 0 m/s | 6 W/m² | - |
* Rain latest hour (hover to see other rain measurements)
** Current wind speed in m/s (hover to see current wind gust speed)